Powrót do katalogu

CZ-4C DEB

AktywnySSO
NORAD 42670·DEBRIS·🇨🇳 China

Wystrzelony Nov 26, 2015 z Taiyuan Satellite Launch Center

Loading…

Następne Przeloty (najbliższe 24 godziny)

TLE

ŚwieżeSource: Space-Track

Epoka: Sep 14, 2026, 10:43 UTC

1 42670U 15069C   26257.44699187  .00006715  00000-0  19734-3 0  9996
2 42670  97.4682 328.9056 0053399 202.6649 157.2235 15.34028945546751

Śledź CZ-4C DEB w czasie rzeczywistym z AllMySat

Download on the App Store